Location: State Camp
(41.2367°N, 77.7828°W)
Time: 15:47:13
(UTC-04:00)

Amateur Radio Satellites - All Passes

Search period start: 31 August 2015 15:17
Search period end: 01 September 2015 15:17
Location: State Camp, 41.2367°N, 77.7828°W

Satellite Date Start Highest point End Downlink Frequencies (MHz)
Time Altitude Azimuth
AO-7 31 Aug 15:18:35 15:26:20 46° 63° (ENE) 15:34:11 29.400- 29.500
ITAMSAT 1 31 Aug 15:27:10 15:32:06 44° 261° (W) 15:37:02 435.822/435.867
SWISSCUBE 31 Aug 15:33:52 15:38:29 52° 288° (WNW) 15:43:05 437.505
AIST 2 31 Aug 15:46:49 15:48:47 13° 110° (ESE) 15:50:58 435.215
STARS 31 Aug 16:08:43 16:12:44 33° 97° (E) 16:16:46 437.465
RS-15 31 Aug 16:11:40 16:21:52 50° 112° (ESE) 16:32:34 29.354- 29.394
ITUPSAT 1 31 Aug 16:12:45 16:16:39 25° 293° (WNW) 16:20:28 437.325
Cosmos 2499 31 Aug 16:13:57 16:22:43 87° 82° (E) 16:30:51 435.465 / 435.565
KKS-1 31 Aug 16:25:57 16:30:30 88° 114° (ESE) 16:34:58 437.445
ISS 31 Aug 16:26:41 16:29:50 48° 221° (SW) 16:32:58 145.825
HORYU 2 31 Aug 16:35:22 16:39:50 64° 258° (WSW) 16:44:19 437.375
MOZHAYETS 4 31 Aug 16:36:24 16:39:15 17° 90° (E) 16:42:16
BEESAT 3 31 Aug 16:38:25 16:41:59 28° 312° (NW) 16:45:32 437.485
JAS-2 31 Aug 16:43:09 16:49:42 29° 270° (W) 16:56:13 435.910
BEESAT 31 Aug 16:47:54 16:49:52 12° 298° (WNW) 16:51:34 436.000
BEESAT 2 31 Aug 16:49:51 16:53:28 29° 312° (NW) 16:57:04 435.950
GONETS M04 31 Aug 17:04:40 17:08:46 13° 283° (WNW) 17:12:13
Cubesat XI-IV 31 Aug 17:06:07 17:08:20 13° 60° (ENE) 17:10:49 437.490
AO-7 31 Aug 17:11:25 17:19:14 42° 262° (W) 17:26:58 29.400- 29.500
AIST 2 31 Aug 17:22:44 17:26:55 60° 305° (NW) 17:31:08 435.215
STARS 31 Aug 17:45:27 17:49:00 23° 293° (WNW) 17:52:28 437.465
CUTE-I 31 Aug 17:48:30 17:53:02 30° 67° (ENE) 17:57:41 437.470
Cosmos 2499 31 Aug 18:09:07 18:14:46 19° 281° (W) 18:19:47 435.465 / 435.565
MOZHAYETS 4 31 Aug 18:12:24 18:16:47 46° 288° (WNW) 18:21:07
RS-15 31 Aug 18:23:40 18:34:20 52° 315° (NW) 18:45:24 29.354- 29.394
CUBESAT XI-V 31 Aug 18:28:36 18:32:12 23° 93° (E) 18:35:55 437.345
BRITE-PL 31 Aug 18:41:43 18:43:49 14° 62° (ENE) 18:46:11 437.365/2234.400
Cubesat XI-IV 31 Aug 18:42:26 18:47:46 88° 250° (WSW) 18:53:08 437.490
HO-68 31 Aug 18:53:21 18:56:44 15° 53° (NE) 19:00:29 435.675
GOMX 1 31 Aug 19:11:21 19:14:09 17° 64° (ENE) 19:17:15 467.674
AIST 1 31 Aug 19:14:27 19:18:19 32° 75° (ENE) 19:22:15
Cosmos 2491 31 Aug 19:18:46 19:25:21 24° 63° (ENE) 19:32:16 435.465 / 435.565
DOVE 4 31 Aug 19:26:36 19:29:07 15° 63° (ENE) 19:31:56 437.250
CUTE-I 31 Aug 19:28:13 19:33:04 34° 264° (W) 19:37:52 437.470
O/OREOS (USA 219) 31 Aug 19:30:33 19:35:01 65° 110° (ESE) 19:39:34 437.305
STRAND 1 31 Aug 19:48:23 19:53:06 38° 97° (E) 19:57:53 437.568
CUBESAT XI-V 31 Aug 20:05:30 20:09:45 36° 289° (WNW) 20:13:58 437.345
CINEMA 3 31 Aug 20:13:02 20:16:20 20° 65° (ENE) 20:19:52 145.822/145.860
BRITE-PL 31 Aug 20:17:29 20:21:47 62° 260° (W) 20:26:25 437.365/2234.400
CUTE 1.7 + AOD 2 31 Aug 20:18:42 20:22:28 31° 71° (ENE) 20:26:17 437.475
Cubesat XI-IV 31 Aug 20:27:53 20:28:46 10° 274° (W) 20:29:13 437.490
CANX-2 31 Aug 20:32:15 20:36:23 49° 74° (ENE) 20:40:33 2200.000
HO-68 31 Aug 20:36:16 20:43:22 71° 71° (ENE) 20:50:33 435.675
PRISM 31 Aug 20:37:33 20:41:40 89° 286° (WNW) 20:45:47 437.425
RS-15 31 Aug 20:41:50 20:50:24 23° 347° (NNW) 20:59:07 29.354- 29.394
GOMX 1 31 Aug 20:47:27 20:51:49 53° 261° (W) 20:56:33 467.674
AIST 1 31 Aug 20:52:32 20:55:48 20° 271° (W) 20:58:57
SEEDS 31 Aug 20:54:02 20:58:13 62° 75° (ENE) 21:02:26 437.485
Oscar 11 31 Aug 20:59:37 21:02:54 22° 68° (ENE) 21:06:16 145.826/435.025
DOVE 4 31 Aug 21:01:46 21:06:18 63° 260° (W) 21:11:11 437.250
O/OREOS (USA 219) 31 Aug 21:12:21 21:15:00 15° 309° (NW) 21:17:30 437.305
Cosmos 2491 31 Aug 21:14:32 21:23:17 75° 265° (W) 21:32:00 435.465 / 435.565
COMPASS 1 31 Aug 21:16:14 21:20:28 86° 74° (ENE) 21:24:41 437.405
YUBILEINY 31 Aug 21:21:27 21:29:55 57° 91° (E) 21:38:31 435.215
AAUSAT CUBESAT 2 31 Aug 21:26:38 21:30:49 86° 257° (WSW) 21:35:02 437.432
STRAND 1 31 Aug 21:27:56 21:32:10 26° 294° (WNW) 21:36:18 437.568
CUBEBUG 2 31 Aug 21:39:58 21:44:33 66° 75° (ENE) 21:49:17 437.445
ZACube-1 31 Aug 21:41:11 21:45:24 40° 72° (ENE) 21:49:43 437.345
FUNcube-1 31 Aug 21:46:34 21:50:52 44° 72° (ENE) 21:55:14 145.935
UWE-3 31 Aug 21:47:21 21:51:52 61° 75° (ENE) 21:56:31 435.000/436.395/437.385
CINEMA 3 31 Aug 21:48:39 21:53:10 47° 262° (W) 21:57:53 145.822/145.860
DELFI C3 31 Aug 21:52:04 21:55:59 50° 74° (ENE) 21:59:55 145.870
CUTE 1.7 + AOD 2 31 Aug 21:55:01 21:58:26 22° 267° (W) 22:01:46 437.475
CANX-2 31 Aug 22:10:13 22:12:38 14° 270° (W) 22:14:53 2200.000
Cosmos 2504 31 Aug 22:15:17 22:19:23 16° 77° (ENE) 22:24:07 435.465 / 435.565
HO-68 31 Aug 22:26:29 22:31:50 21° 270° (W) 22:36:55 435.675
DX 1 31 Aug 22:27:00 22:30:42 29° 69° (ENE) 22:34:28 434.975-435.025
HUMSAT D 31 Aug 22:27:23 22:31:32 48° 73° (ENE) 22:35:44 437.325/437.525
50 SAT 31 Aug 22:32:37 22:35:40 22° 69° (ENE) 22:38:48 437.505
SEEDS 31 Aug 22:33:05 22:34:30 11° 272° (W) 22:35:38 437.485
Oscar 11 31 Aug 22:34:55 22:38:53 34° 263° (W) 22:42:52 145.826/435.025
ESTCUBE 1 31 Aug 22:35:52 22:38:47 18° 66° (ENE) 22:41:51 437.505/2401.250
UKube-1 31 Aug 22:39:33 22:43:27 35° 70° (ENE) 22:47:25 .
AISAT 31 Aug 22:48:25 22:52:19 32° 70° (ENE) 22:56:16 437.250
CUBEBUG 1 31 Aug 22:50:15 22:53:18 20° 67° (ENE) 22:56:28 437.445
RS-15 31 Aug 22:58:56 23:08:09 27° 21° (NNE) 23:17:54 29.354- 29.394
UNISAT 6 31 Aug 23:00:27 23:04:10 25° 93° (E) 23:07:53 437.425
QB50P1 31 Aug 23:11:28 23:12:05 10° 87° (E) 23:12:58 145.935-145.965
Cosmos 2491 31 Aug 23:14:43 23:18:48 13° 283° (WNW) 23:22:15 435.465 / 435.565
VELOX 1 31 Aug 23:16:09 23:20:29 61° 73° (ENE) 23:24:51 145.980
ZACube-1 31 Aug 23:18:31 23:21:56 20° 269° (W) 23:25:16 437.345
BEESAT 3 31 Aug 23:18:59 23:21:58 20° 44° (NE) 23:25:00 437.485
YUBILEINY 31 Aug 23:19:34 23:27:17 32° 292° (WNW) 23:34:52 435.215
CUBEBUG 2 31 Aug 23:19:38 23:21:48 13° 273° (W) 23:23:44 437.445
FUNcube-1 31 Aug 23:24:14 23:27:25 18° 269° (W) 23:30:30 145.935
UWE-3 31 Aug 23:26:31 23:28:53 13° 272° (W) 23:31:03 435.000/436.395/437.385
TIGRISAT 31 Aug 23:28:34 23:33:00 47° 98° (E) 23:37:19 435.000
DELFI C3 31 Aug 23:29:31 23:31:23 12° 271° (W) 23:33:04 145.870
BEESAT 2 31 Aug 23:30:54 23:33:56 20° 44° (NE) 23:37:00 435.950
ANTELSAT 31 Aug 23:45:32 23:50:08 77° 101° (E) 23:54:36 437.575/2403.000
TISAT 1 31 Aug 23:51:01 23:53:27 16° 65° (ENE) 23:56:03 437.305
Cosmos 2504 01 Sep 00:02:13 00:10:20 82° 95° (E) 00:18:57 435.465 / 435.565
DX 1 01 Sep 00:03:19 00:06:56 25° 265° (W) 00:10:31 434.975-435.025
HUMSAT D 01 Sep 00:05:00 00:07:34 15° 270° (W) 00:09:58 437.325/437.525
50 SAT 01 Sep 00:06:38 00:10:04 27° 264° (W) 00:13:28 437.505
AIST 2 01 Sep 00:07:36 00:09:19 12° 38° (NE) 00:11:10 435.215
POLYITAN 1 01 Sep 00:09:57 00:14:10 50° 100° (E) 00:18:20 437.675
ESTCUBE 1 01 Sep 00:11:01 00:15:20 46° 261° (W) 00:19:40 437.505/2401.250
AUBIESAT-1 01 Sep 00:11:11 00:15:09 81° 109° (ESE) 00:18:47 437.475
POPSAT HIP 1 01 Sep 00:12:33 00:16:46 52° 100° (E) 00:20:58 437.405
DUCHIFAT 1 01 Sep 00:13:04 00:17:15 51° 99° (E) 00:21:25 145.980
UKube-1 01 Sep 00:16:26 00:19:42 20° 267° (W) 00:22:52 .
M-CUBED/EXP-1 PRIME 01 Sep 00:16:29 00:20:30 72° 290° (WNW) 00:24:09 437.505
SPROUT 01 Sep 00:20:37 00:24:49 56° 74° (ENE) 00:29:03 437.525
BUGSAT 1 01 Sep 00:20:58 00:24:57 38° 97° (E) 00:28:57 437.445
AISAT 01 Sep 00:25:21 00:28:55 23° 266° (W) 00:32:26 437.250
CUBEBUG 1 01 Sep 00:25:23 00:29:25 38° 263° (W) 00:33:28 437.445
QB50P2 01 Sep 00:29:27 00:33:47 86° 100° (E) 00:38:04 145.880/145.840
NANOSAT C BR1 01 Sep 00:30:29 00:34:48 84° 101° (E) 00:39:05 145.865
UNISAT 6 01 Sep 00:36:54 00:40:59 31° 291° (WNW) 00:44:54 437.425
SO-50 01 Sep 00:37:15 00:40:30 19° 111° (ESE) 00:43:57 436.795
BEESAT 01 Sep 00:40:44 00:41:41 11° 61° (ENE) 00:42:54 436.000
QB50P1 01 Sep 00:44:12 00:48:29 67° 285° (WNW) 00:52:43 145.935-145.965
CUSAT 1 01 Sep 00:51:32 00:55:22 80° 283° (WNW) 01:00:34 437.405
VELOX 1 01 Sep 00:55:38 00:57:31 12° 271° (W) 00:59:09 145.980
BEESAT 3 01 Sep 00:56:16 01:00:07 42° 242° (WSW) 01:03:52 437.485
SWISSCUBE 01 Sep 01:03:59 01:07:22 20° 66° (ENE) 01:10:53 437.505
TIGRISAT 01 Sep 01:06:18 01:09:23 18° 295° (WNW) 01:12:17 435.000
BEESAT 2 01 Sep 01:08:20 01:12:11 43° 243° (WSW) 01:15:58 435.950
RS-15 01 Sep 01:11:53 01:23:36 65° 50° (NE) 01:35:46 29.354- 29.394
DANDE 01 Sep 01:20:05 01:23:29 63° 283° (WNW) 01:28:02 436.750
ANTELSAT 01 Sep 01:24:37 01:26:18 12° 298° (WNW) 01:27:45 437.575/2403.000
TISAT 1 01 Sep 01:24:48 01:28:51 47° 261° (W) 01:32:57 437.305
PCSat 01 Sep 01:37:29 01:42:02 29° 110° (ESE) 01:46:41 145.827
ITUPSAT 1 01 Sep 01:41:17 01:45:44 41° 71° (ENE) 01:50:14 437.325
AIST 2 01 Sep 01:44:23 01:48:35 87° 57° (ENE) 01:52:42 435.215
POLYITAN 1 01 Sep 01:47:04 01:49:41 15° 295° (WNW) 01:52:08 437.675
POPSAT HIP 1 01 Sep 01:49:45 01:52:14 15° 295° (WNW) 01:54:34 437.405
DUCHIFAT 1 01 Sep 01:50:08 01:52:40 15° 295° (WNW) 01:55:02 145.980
BUGSAT 1 01 Sep 01:57:06 02:00:10 19° 293° (WNW) 02:03:07 437.445
Cosmos 2504 01 Sep 01:57:33 02:03:47 22° 298° (WNW) 02:09:51 435.465 / 435.565
SPROUT 01 Sep 01:59:18 02:01:19 13° 271° (W) 02:03:06 437.525
GONETS M04 01 Sep 02:10:47 02:17:27 27° 83° (E) 02:24:26
BEESAT 01 Sep 02:14:06 02:18:53 90° 62° (ENE) 02:23:40 436.000
SO-50 01 Sep 02:15:56 02:20:39 55° 308° (NW) 02:25:31 436.795
SWISSCUBE 01 Sep 02:40:22 02:44:57 45° 261° (W) 02:49:31 437.505
Oscar 19 01 Sep 02:40:33 02:45:47 74° 102° (ESE) 02:50:58 437.125/150
Cosmos 2499 01 Sep 03:02:03 03:05:19 13° 76° (ENE) 03:09:19 435.465 / 435.565
STARS 01 Sep 03:05:36 03:09:25 30° 69° (ENE) 03:13:19 437.465
VERMONT LUNAR 01 Sep 03:15:28 03:17:01 13° 150° (SSE) 03:18:38 437.305
ITUPSAT 1 01 Sep 03:20:11 03:23:49 21° 267° (W) 03:27:21 437.325
PCSat 01 Sep 03:20:12 03:25:19 41° 307° (NW) 03:30:25 145.827
Gurwin Techsat 1B 01 Sep 03:22:16 03:27:30 57° 100° (E) 03:32:43 435.225
AO-7 01 Sep 03:23:35 03:25:49 12° 84° (E) 03:28:49 29.400- 29.500
KKS-1 01 Sep 03:23:48 03:28:15 80° 76° (ENE) 03:32:44 437.445
RS-15 01 Sep 03:24:55 03:35:43 40° 251° (WSW) 03:46:30 29.354- 29.394
MOZHAYETS 4 01 Sep 03:38:41 03:41:36 17° 66° (ENE) 03:44:40
ITAMSAT 1 01 Sep 03:39:36 03:44:47 66° 102° (ESE) 03:49:56 435.822/435.867
JAS-2 01 Sep 03:52:36 03:59:26 53° 97° (E) 04:05:28 435.910
SO-50 01 Sep 04:00:42 04:02:23 11° 329° (NNW) 04:03:54 436.795
O/OREOS (USA 219) 01 Sep 04:02:39 04:05:11 15° 51° (NE) 04:07:52 437.305
GONETS M04 01 Sep 04:05:05 04:13:42 65° 282° (WNW) 04:22:22
Oscar 19 01 Sep 04:21:36 04:24:35 15° 298° (WNW) 04:27:19 437.125/150
HORYU 2 01 Sep 04:27:08 04:30:41 24° 94° (E) 04:34:19 437.375
STARS 01 Sep 04:42:11 04:45:52 25° 266° (W) 04:49:31 437.465
Cosmos 2499 01 Sep 04:48:39 04:57:01 72° 94° (E) 05:05:53 435.465 / 435.565
VERMONT LUNAR 01 Sep 04:50:09 04:53:03 48° 165° (SSE) 04:55:56 437.305
Gurwin Techsat 1B 01 Sep 05:03:17 05:07:06 20° 296° (WNW) 05:10:44 435.225
AO-7 01 Sep 05:12:06 05:20:24 69° 105° (ESE) 05:28:38 29.400- 29.500
MOZHAYETS 4 01 Sep 05:13:59 05:18:28 50° 261° (W) 05:22:58
ITAMSAT 1 01 Sep 05:20:32 05:23:48 17° 298° (WNW) 05:26:52 435.822/435.867
CUBESAT XI-V 01 Sep 05:32:17 05:35:47 23° 68° (ENE) 05:39:25 437.345
PHONESAT 2.4 01 Sep 05:37:16 05:39:39 18° 151° (SSE) 05:42:04 2401.200-2431.200
JAS-2 01 Sep 05:38:12 05:44:06 29° 298° (WNW) 05:49:19 435.910
O/OREOS (USA 219) 01 Sep 05:40:34 05:45:09 66° 251° (WSW) 05:49:41 437.305
HORYU 2 01 Sep 06:03:24 06:07:23 32° 290° (WNW) 06:11:17 437.375
CUTE-I 01 Sep 06:07:44 06:09:01 11° 86° (E) 06:10:40 437.470
GONETS M04 01 Sep 06:09:05 06:12:49 12° 306° (NW) 06:15:55
VERMONT LUNAR 01 Sep 06:26:24 06:29:22 79° 184° (S) 06:32:21 437.305
Cosmos 2499 01 Sep 06:44:08 06:51:10 26° 296° (WNW) 06:58:09 435.465 / 435.565
Cubesat XI-IV 01 Sep 06:59:57 07:04:51 37° 97° (E) 07:09:46 437.490
STRAND 1 01 Sep 07:04:09 07:09:07 55° 72° (ENE) 07:14:06 437.568
AO-7 01 Sep 07:05:47 07:12:38 29° 303° (WNW) 07:19:15 29.400- 29.500
CUBESAT XI-V 01 Sep 07:08:48 07:13:03 36° 264° (W) 07:17:17 437.345
PHONESAT 2.4 01 Sep 07:13:48 07:17:09 56° 167° (SSE) 07:20:30 2401.200-2431.200
PRISM 01 Sep 07:27:13 07:31:17 65° 75° (ENE) 07:35:21 437.425
YUBILEINY 01 Sep 07:32:04 07:39:17 28° 66° (ENE) 07:46:42 435.215
CUTE-I 01 Sep 07:44:34 07:49:56 87° 285° (WNW) 07:55:16 437.470
AIST 1 01 Sep 07:44:48 07:47:43 19° 88° (E) 07:50:47
VERMONT LUNAR 01 Sep 08:02:51 08:05:40 40° 198° (SSW) 08:08:29 437.305
HO-68 01 Sep 08:07:26 08:09:33 12° 84° (E) 08:12:14 435.675
Cosmos 2491 01 Sep 08:20:58 08:27:38 27° 83° (E) 08:34:36 435.465 / 435.565
BRITE-PL 01 Sep 08:21:14 08:26:32 46° 97° (E) 08:32:00 437.365/2234.400
Cubesat XI-IV 01 Sep 08:40:17 08:44:51 29° 293° (WNW) 08:49:19 437.490
STRAND 1 01 Sep 08:45:19 08:48:44 17° 270° (W) 08:51:57 437.568
GOMX 1 01 Sep 08:48:33 08:53:50 49° 98° (E) 08:59:10 467.674
PHONESAT 2.4 01 Sep 08:51:33 08:54:58 80° 183° (S) 08:58:22 2401.200-2431.200
DOVE 4 01 Sep 09:00:38 09:05:36 39° 96° (E) 09:10:31 437.250
COMPASS 1 01 Sep 09:01:12 09:03:12 14° 89° (E) 09:05:24 437.405
ISS 01 Sep 09:05:29 09:08:38 48° 139° (SE) 09:11:48 145.825
SO-50 01 Sep 09:07:39 09:11:26 22° 41° (NE) 09:15:15 436.795
AAUSAT CUBESAT 2 01 Sep 09:10:52 09:13:07 15° 90° (E) 09:15:32 437.432
AIST 1 01 Sep 09:21:17 09:25:09 33° 284° (WNW) 09:29:01
AUBIESAT-1 01 Sep 09:25:39 09:27:48 13° 58° (ENE) 09:30:09 437.475
CUTE-I 01 Sep 09:27:06 09:29:18 12° 301° (WNW) 09:31:14 437.470
YUBILEINY 01 Sep 09:28:09 09:36:53 65° 267° (W) 09:45:30 435.215
M-CUBED/EXP-1 PRIME 01 Sep 09:30:22 09:33:25 18° 60° (ENE) 09:36:36 437.505
CUBEBUG 2 01 Sep 09:32:48 09:35:18 15° 88° (E) 09:37:57 437.445
CUTE 1.7 + AOD 2 01 Sep 09:39:04 09:43:15 61° 100° (E) 09:47:25 437.475
UWE-3 01 Sep 09:39:22 09:41:18 13° 87° (E) 09:43:26 435.000/436.395/437.385
VERMONT LUNAR 01 Sep 09:41:18 09:41:37 10° 212° (SSW) 09:41:52 437.305
CINEMA 3 01 Sep 09:43:29 09:48:16 44° 97° (E) 09:52:55 145.822/145.860
CUSAT 1 01 Sep 09:44:41 09:49:29 18° 61° (ENE) 09:54:55 437.405
Cosmos 2504 01 Sep 09:49:48 09:56:43 28° 66° (ENE) 10:03:33 435.465 / 435.565
HO-68 01 Sep 09:51:25 09:58:39 75° 104° (ESE) 10:05:51 435.675
CANX-2 01 Sep 09:53:07 09:57:22 81° 284° (WNW) 10:01:34 2200.000
UNISAT 6 01 Sep 09:59:18 10:02:59 24° 68° (ENE) 10:06:49 437.425
BRITE-PL 01 Sep 10:00:15 10:04:49 26° 292° (WNW) 10:09:22 437.365/2234.400
SEEDS 01 Sep 10:13:53 10:18:04 66° 285° (WNW) 10:22:11 437.485
DANDE 01 Sep 10:15:02 10:20:20 21° 64° (ENE) 10:26:26 436.750
Cosmos 2491 01 Sep 10:15:15 10:23:54 65° 282° (WNW) 10:32:34 435.465 / 435.565
Oscar 11 01 Sep 10:21:52 10:25:57 41° 98° (E) 10:30:02 145.826/435.025
PCSat 01 Sep 10:24:51 10:29:21 26° 47° (NE) 10:33:55 145.827
TIGRISAT 01 Sep 10:26:51 10:31:15 43° 72° (ENE) 10:35:44 435.000
GOMX 1 01 Sep 10:27:19 10:31:39 24° 293° (WNW) 10:35:53 467.674
PHONESAT 2.4 01 Sep 10:29:29 10:32:41 39° 200° (SSW) 10:35:54 2401.200-2431.200
COMPASS 1 01 Sep 10:35:11 10:39:12 48° 286° (WNW) 10:43:11 437.405
DOVE 4 01 Sep 10:38:39 10:43:09 28° 292° (WNW) 10:47:32 437.250
ISS 01 Sep 10:42:23 10:45:12 26° 337° (NNW) 10:48:00 145.825
ANTELSAT 01 Sep 10:43:52 10:48:31 67° 75° (ENE) 10:53:14 437.575/2403.000
AAUSAT CUBESAT 2 01 Sep 10:45:03 10:49:00 44° 287° (WNW) 10:52:54 437.432
SO-50 01 Sep 10:47:32 10:52:26 61° 241° (WSW) 10:57:10 436.795
AUBIESAT-1 01 Sep 10:57:12 11:01:57 80° 251° (WSW) 11:06:39 437.475
POLYITAN 1 01 Sep 11:02:48 11:06:44 37° 71° (ENE) 11:10:44 437.675
M-CUBED/EXP-1 PRIME 01 Sep 11:03:02 11:07:47 60° 255° (WSW) 11:12:29 437.505
POPSAT HIP 1 01 Sep 11:05:11 11:09:08 39° 71° (ENE) 11:13:08 437.405
DUCHIFAT 1 01 Sep 11:05:15 11:09:09 37° 71° (ENE) 11:13:06 145.980
DELFI C3 01 Sep 11:05:40 11:09:40 87° 99° (E) 11:13:39 145.870
ZACube-1 01 Sep 11:05:47 11:10:19 84° 100° (E) 11:14:43 437.345
CUBEBUG 2 01 Sep 11:07:49 11:12:26 55° 286° (WNW) 11:16:53 437.445
VELOX 1 01 Sep 11:08:46 11:10:12 12° 88° (E) 11:11:53 145.980
FUNcube-1 01 Sep 11:10:58 11:15:30 88° 273° (W) 11:19:52 145.935
BUGSAT 1 01 Sep 11:11:17 11:14:39 26° 69° (ENE) 11:18:10 437.445
UWE-3 01 Sep 11:13:47 11:18:21 61° 286° (WNW) 11:22:45 435.000/436.395/437.385
CUTE 1.7 + AOD 2 01 Sep 11:16:52 11:18:42 12° 296° (WNW) 11:20:19 437.475
CINEMA 3 01 Sep 11:21:17 11:25:09 22° 294° (WNW) 11:28:50 145.822/145.860
QB50P2 01 Sep 11:21:59 11:26:12 63° 75° (ENE) 11:30:27 145.880/145.840
NANOSAT C BR1 01 Sep 11:22:38 11:26:48 61° 74° (ENE) 11:31:02 145.865
CUSAT 1 01 Sep 11:25:22 11:33:13 79° 79° (E) 11:41:29 437.405
YUBILEINY 01 Sep 11:29:50 11:32:09 11° 285° (WNW) 11:33:41 435.215
UNISAT 6 01 Sep 11:35:15 11:39:35 36° 264° (W) 11:43:56 437.425
QB50P1 01 Sep 11:36:27 11:40:42 89° 74° (ENE) 11:45:00 145.935-145.965
HO-68 01 Sep 11:40:20 11:45:45 23° 302° (WNW) 11:50:58 435.675
Cosmos 2504 01 Sep 11:41:17 11:49:41 64° 268° (W) 11:57:30 435.465 / 435.565
50 SAT 01 Sep 11:41:17 11:44:43 30° 96° (E) 11:48:09 437.505
HUMSAT D 01 Sep 11:46:48 11:51:05 88° 284° (WNW) 11:55:15 437.325/437.525
DX 1 01 Sep 11:50:37 11:54:56 53° 100° (E) 11:59:14 434.975-435.025
DANDE 01 Sep 11:56:38 12:04:18 90° 262° (W) 12:12:53 436.750
Oscar 11 01 Sep 11:58:51 12:01:51 18° 294° (WNW) 12:04:43 145.826/435.025
UKube-1 01 Sep 12:02:24 12:06:44 65° 101° (ESE) 12:11:02 .
ESTCUBE 1 01 Sep 12:03:35 12:07:43 35° 97° (E) 12:11:52 437.505/2401.250
TIGRISAT 01 Sep 12:04:45 12:08:12 20° 269° (W) 12:11:34 435.000
PCSat 01 Sep 12:07:49 12:13:03 50° 247° (WSW) 12:18:15 145.827
PHONESAT 2.4 01 Sep 12:09:19 12:10:03 10° 213° (SSW) 12:10:41 2401.200-2431.200
CUBEBUG 1 01 Sep 12:13:51 12:17:57 37° 97° (E) 12:22:05 437.445
AISAT 01 Sep 12:14:43 12:19:12 65° 102° (ESE) 12:23:39 437.250
Cosmos 2491 01 Sep 12:19:14 12:23:00 13° 306° (NW) 12:26:09 435.465 / 435.565
ISS 01 Sep 12:20:43 12:22:27 13° 357° (N) 12:24:09 145.825
Oscar 19 01 Sep 12:21:12 12:23:44 14° 61° (ENE) 12:26:30 437.125/150
GONETS M04 01 Sep 12:21:30 12:24:45 13° 54° (NE) 12:28:40
ANTELSAT 01 Sep 12:23:42 12:25:50 12° 272° (W) 12:27:43 437.575/2403.000
POLYITAN 1 01 Sep 12:39:43 12:42:48 19° 268° (W) 12:45:46 437.675
DUCHIFAT 1 01 Sep 12:42:05 12:45:07 18° 268° (W) 12:48:02 145.980
POPSAT HIP 1 01 Sep 12:42:12 12:45:11 18° 268° (W) 12:48:03 437.405
VELOX 1 01 Sep 12:42:49 12:47:16 65° 285° (WNW) 12:51:41 145.980
ZACube-1 01 Sep 12:45:10 12:46:01 10° 298° (WNW) 12:46:37 437.345
BUGSAT 1 01 Sep 12:46:44 12:50:06 24° 266° (W) 12:53:27 437.445
QB50P2 01 Sep 13:01:15 13:02:35 11° 272° (W) 13:03:41 145.880/145.840
NANOSAT C BR1 01 Sep 13:01:36 13:03:07 11° 272° (W) 13:04:23 145.865
Gurwin Techsat 1B 01 Sep 13:07:25 13:09:20 12° 60° (ENE) 13:11:32 435.225
CUSAT 1 01 Sep 13:09:12 13:15:12 23° 274° (W) 13:21:05 437.405
TISAT 1 01 Sep 13:09:24 13:12:58 26° 95° (E) 13:16:35 437.305
50 SAT 01 Sep 13:16:15 13:19:04 19° 292° (WNW) 13:21:45 437.505
ITAMSAT 1 01 Sep 13:21:35 13:23:52 13° 61° (ENE) 13:26:24 435.822/435.867
DX 1 01 Sep 13:28:11 13:30:47 15° 296° (WNW) 13:33:13 434.975-435.025
Cosmos 2504 01 Sep 13:38:24 13:40:17 11° 286° (WNW) 13:41:26 435.465 / 435.565
UKube-1 01 Sep 13:40:25 13:42:22 13° 297° (WNW) 13:44:08 .
ESTCUBE 1 01 Sep 13:40:52 13:44:24 22° 293° (WNW) 13:47:50 437.505/2401.250
DANDE 01 Sep 13:41:31 13:46:53 19° 274° (W) 13:52:10 436.750
SPROUT 01 Sep 13:42:58 13:47:19 73° 284° (WNW) 13:51:37 437.525
ITUPSAT 1 01 Sep 13:45:21 13:45:22 10° 87° (E) 13:45:44 437.325
CUBEBUG 1 01 Sep 13:50:45 13:54:05 21° 293° (WNW) 13:57:19 437.445
AISAT 01 Sep 13:53:03 13:55:17 13° 297° (WNW) 13:57:18 437.250
Oscar 19 01 Sep 13:57:19 14:02:29 78° 256° (WSW) 14:07:43 437.125/150
ISS 01 Sep 13:57:22 13:59:48 19° 17° (NNE) 14:02:14 145.825
JAS-2 01 Sep 14:03:29 14:09:46 29° 62° (ENE) 14:16:18 435.910
BEESAT 01 Sep 14:15:00 14:18:42 23° 93° (E) 14:22:30 436.000
GONETS M04 01 Sep 14:15:07 14:23:52 65° 78° (ENE) 14:32:39
AO-7 01 Sep 14:21:30 14:27:13 22° 53° (NE) 14:33:12 29.400- 29.500
SWISSCUBE 01 Sep 14:40:27 14:45:01 45° 99° (E) 14:49:35 437.505
Cosmos 2499 01 Sep 14:41:11 14:48:07 27° 64° (ENE) 14:54:56 435.465 / 435.565
Gurwin Techsat 1B 01 Sep 14:43:18 14:48:37 88° 82° (E) 14:53:59 435.225
TISAT 1 01 Sep 14:45:02 14:48:41 27° 291° (WNW) 14:52:15 437.305
BEESAT 3 01 Sep 14:48:25 14:51:59 31° 115° (ESE) 14:55:39 437.485
ITAMSAT 1 01 Sep 14:57:35 15:02:46 83° 255° (WSW) 15:07:59 435.822/435.867
BEESAT 2 01 Sep 15:01:25 15:05:04 32° 115° (ESE) 15:08:46 435.950
